Simultaneous Nadir Overpasses (SNOs) Predictions

Prediction of SNOs between NOAA-20 and AQUA Satellite Orbit:

Table of predicted SNOs for the next 14.0 days since TLE Epoch: 6/8/2024
Index Date (NOAA-20) Time (NOAA-20) Lat,Lon (NOAA-20) SZA (NOAA-20 ) Date (AQUA) Time (AQUA) Lat,Lon (AQUA) SZA (AQUA ) Distance(km) Time Diff (sec)
1 06/10/2024 12:33:08 81.27, -84.24 65.07 06/10/2024 12:33:21 81.27, -84.38 65.08 2.32 13
2 06/10/2024 13:23:51 -81.28, 83.77 115.04 06/10/2024 13:22:42 -81.29, 83.71 114.99 1.02 69
3 06/13/2024 00:36:12 -81.27, -85.21 115.04 06/13/2024 00:37:02 -81.27, -85.24 115.07 0.48 50
4 06/13/2024 01:26:55 81.28, 82.83 64.85 06/13/2024 01:26:23 81.28, 82.67 64.90 2.79 32
5 06/15/2024 13:30:00 -81.27, 81.42 115.15 06/15/2024 13:30:03 -81.27, 81.59 115.18 2.96 3
6 06/18/2024 01:33:02 81.27, 80.72 64.80 06/18/2024 01:33:39 81.27, 80.75 64.77 0.42 37
7 06/18/2024 02:23:46 -81.28,-111.63 115.25 06/18/2024 02:23:01 -81.28,-111.46 115.25 2.99 45
8 06/20/2024 13:36:05 -81.27, 79.97 115.21 06/20/2024 13:37:15 -81.28, 80.02 115.26 1.00 70



Historial Predications of SNOs between NOAA-20 and AQUA
